Tracking 28790 objects as of 19-Apr-2024
HD Live streaming from Space Station
objects crossing your sky now

ARIANE 44L+ DEB

Track ARIANE 44L+ DEB now!


NORAD ID: 23237
Int'l Code: 1992-021G
Perigee: 907.9 km
Apogee: 35,550.0 km
Inclination: 3.0 °
Period: 640.0 minutes
Semi major axis: 24599 km
RCS: 0.784 m2 (medium)
Launch date: April 15, 1992
Source: France (FR)
Launch site: FRENCH GUIANA (FRGUI)

Note: This is SATELLITE DEBRIS
Your satellite tracking list
Your tracking list is empty




NASA's NSSDC Master Catalog

Two Line Element Set (TLE):
1 23237U 92021G   24109.82344346 -.00000086  00000-0 -80142-2 0  9994
2 23237   2.9657 193.9488 7041091 110.0064 284.9057  2.25009752248184
Source of the keplerian elements: AFSPC